Temperature
18 18 17 18 17 17 17 17 17 17 17 17 17 16 16 16 16 16 16 16 16 16 16 16 16 15 15 15 15 15 15 14 14 15 15 15 14 14 14 14 14 14 14
18 18 18 18 17 17 17 17 17 17 17 17 17 17 17 16 16 16 16 16 16 16 16 16 16 16 16 15 15 15 15 15 14 15 15 15 15 14 14 14 14 14 14
18 18 18 18 18 18 18 17 17 17 17 17 17 17 17 17 16 16 16 16 16 16 16 16 16 15 16 15 15 15 15 14 14 14 15 15 15 15 14 14 14 14 14
18 18 18 18 18 18 18 18 18 17 17 17 17 16 16 16 16 16 16 16 16 16 16 16 15 15 15 15 15 15 15 14 14 14 14 15 15 15 14 14 14 15 14
19 18 18 18 18 18 18 18 17 17 17 17 16 16 16 16 16 16 16 16 16 16 15 15 15 15 15 14 14 14 14 14 14 14 14 14 15 15 15 14 14 14 14
18 18 18 18 18 18 17 17 17 17 17 16 16 16 16 16 16 16 16 15 15 15 15 15 15 14 14 14 14 14 14 13 13 13 13 13 14 14 14 14 13 13 14
18 17 17 17 17 17 17 17 17 16 16 16 16 16 15 15 15 15 15 15 14 14 14 14 14 14 14 14 13 13 13 13 13 13 13 13 13 13 13 13 13 13 13
17 17 17 17 17 16 16 16 16 16 15 15 15 15 15 14 14 14 14 14 14 14 13 13 13 13 13 13 13 13 13 13 13 12 12 12 12 12 12 12 12 12 12
16 16 16 16 16 15 15 15 15 14 14 14 14 14 14 13 13 13 13 13 13 13 13 12 12 12 12 12 12 12 12 12 12 12 12 12 12 12 12 11 11 11 11
15 14 14 15 14 14 14 14 14 13 13 13 13 13 13 13 13 13 12 12 12 12 12 12 11 11 11 11 11 11 11 11 11 11 11 11 11 11 11 11 11 11 10
13 14 14 13 13 13 13 13 13 13 13 12 12 12 12 12 12 12 11 11 11 11 11 11 11 10 10 10 10 10 10 10 10 10 10 11 11 11 11 11 11 10 10
13 13 13 12 12 12 12 12 12 12 12 11 11 11 11 11 11 10 10 10 10 10 10 9 9 9 9 9 9 9 9 9 9 9 9 9 9 10 10 10 10 10 10
12 12 12 12 11 11 11 11 11 11 11 11 10 10 10 10 9 9 9 9 9 9 8 8 8 8 8 8 8 8 8 8 8 8 8 8 8 8 8 9 9 9 9
11 11 11 11 11 11 11 11 10 10 10 10 10 9 9 9 9 9 8 8 8 8 8 8 7 7 7 7 7 7 7 7 7 7 7 7 7 7 7 8 8 8 8
11 11 11 10 10 10 10 10 10 9 9 9 9 9 8 8 8 7 7 7 7 7 6 6 6 6 6 6 6 6 6 6 6 6 6 6 6 6 7 7 7 7 7
10 10 10 10 10 10 10 9 9 9 8 8 8 8 7 7 7 6 6 6 6 5 5 5 5 5 5 5 5 5 5 5 5 5 5 5 5 5 6 6 6 6 6
10 10 10 9 9 9 9 9 8 8 8 7 7 7 6 6 6 6 5 5 5 5 5 4 4 4 4 4 4 4 4 4 4 4 4 4 5 5 5 5 5 6 6
9 9 9 9 9 8 8 8 7 7 7 6 6 6 6 5 5 5 4 4 4 4 4 3 3 3 3 3 3 3 3 3 4 4 4 4 4 4 4 5 5 5 5
9 9 8 8 8 8 7 7 7 6 6 5 5 5 5 4 4 4 4 4 3 3 3 3 3 3 3 3 2 2 3 3 3 3 3 3 3 4 4 4 4 4 5
8 8 8 7 7 7 6 6 6 5 5 5 4 4 4 4 3 3 3 3 3 2 2 2 2 2 2 2 2 2 2 2 2 3 3 3 3 3 3 4 4 4 4
8 7 7 7 6 6 6 5 5 4 4 4 3 3 3 3 2 2 2 2 2 2 2 2 2 2 1 1 1 1 2 2 2 2 2 2 3 3 3 4 4 4 4
7 6 6 6 5 5 5 4 4 3 3 3 3 3 2 2 2 2 1 1 1 1 1 1 1 1 1 1 1 1 1 1 2 2 2 2 2 3 3 3 3 4 4
6 6 5 5 5 4 4 4 3 3 3 2 2 2 2 1 1 1 1 1 1 1 1 1 1 1 1 1 1 1 1 1 1 1 2 2 2 2 3 3 3 4 4
5 5 5 4 4 4 3 3 3 2 2 2 2 1 1 1 1 0 0 0 0 0 0 0 0 0 0 1 1 1 1 1 1 1 2 2 2 2 2 3 3 3 4
5 4 4 4 3 3 2 2 2 2 1 1 1 1 1 0 0 0 0 0 0 0 0 0 0 0 0 1 1 1 1 1 1 1 2 2 2 2 2 3 3 3 4
4 3 3 3 2 2 2 2 1 1 1 1 0 0 0 -0 -0 -0 -0 -0 -0 -0 -0 0 0 0 0 0 1 1 1 1 2 2 2 2 2 2 3 3 3 3 3
Wind_Speed
11 10 9 8 7 7 7 7 7 6 7 8 9 9 9 8 8 7 7 6 7 6 5 6 6 5 4 3 2 2 3 4 4 4 3 3 3 4 5 10 14 15 15
10 9 9 8 7 7 7 7 7 7 7 8 8 9 9 9 9 9 9 8 8 8 7 7 7 6 6 5 4 4 4 4 5 6 4 3 5 5 5 6 9 13 15
10 9 9 8 8 8 8 7 7 7 7 7 8 9 9 9 9 10 9 9 9 9 9 9 8 7 7 6 6 6 5 5 5 5 6 4 5 5 5 6 6 7 12
9 9 8 8 8 8 7 7 7 7 8 8 8 9 9 9 9 9 9 9 9 9 9 9 9 9 9 9 8 8 7 6 6 6 7 6 6 5 4 6 6 6 7
8 8 8 7 6 6 5 5 5 5 6 6 6 7 7 7 8 9 9 10 9 9 9 9 10 11 13 11 9 8 8 8 7 7 8 6 7 5 6 5 7 7 6
7 6 5 4 4 3 2 2 2 2 3 3 4 5 5 6 8 11 9 8 8 8 8 8 9 10 12 14 15 14 12 10 10 9 9 9 11 8 7 7 7 6 7
7 5 5 5 5 3 3 2 1 1 0 1 2 2 3 3 4 5 8 5 5 5 6 6 7 6 7 7 9 12 13 15 15 12 12 13 12 9 8 8 8 9 10
9 7 6 5 5 4 4 3 1 1 1 1 1 0 0 1 0 2 2 2 1 2 3 3 4 4 4 4 5 6 7 8 11 11 11 13 12 10 10 12 12 11 9
10 8 6 6 6 6 5 4 2 2 3 3 2 2 2 3 4 2 2 1 1 2 3 3 2 2 5 6 4 5 7 8 10 12 12 14 17 17 13 8 8 8 11
9 8 7 7 7 6 5 4 3 3 4 5 5 5 5 5 7 6 5 3 3 3 3 4 4 5 7 7 4 5 8 9 9 11 10 11 11 13 15 12 11 11 11
7 7 7 7 6 6 5 4 4 5 6 6 6 5 6 6 8 8 7 3 2 2 2 3 4 7 9 10 8 6 11 11 9 9 10 9 9 9 9 9 10 12 13
8 8 7 6 6 6 6 6 5 6 6 5 5 5 4 4 6 6 7 5 3 1 2 3 5 10 12 13 10 12 15 12 7 7 8 9 9 10 10 10 10 11 14
8 7 6 6 5 5 5 5 4 4 3 3 3 3 2 2 3 5 6 5 5 2 3 7 10 13 13 10 12 14 12 7 6 7 8 9 9 9 9 8 9 10 11
8 6 5 5 6 5 4 4 3 3 2 2 2 2 1 2 3 3 3 4 5 5 5 8 11 11 9 9 10 9 6 6 7 7 8 8 8 8 8 8 9 8 9
7 6 5 5 5 4 4 3 3 1 2 3 1 1 1 1 3 4 3 4 4 5 5 4 4 5 6 6 7 7 7 6 6 6 7 8 8 8 9 8 7 8 9
6 6 5 4 4 4 4 5 7 5 7 7 5 4 1 1 5 7 8 8 9 7 3 3 5 5 6 7 8 8 7 7 7 7 7 8 8 9 10 9 8 9 10
6 4 4 4 4 4 3 4 3 5 8 8 7 5 4 5 7 8 9 9 8 6 2 4 5 6 6 7 7 8 8 8 8 8 8 9 9 9 9 10 9 9 10
5 5 4 3 4 4 4 3 3 3 3 4 5 7 7 7 8 9 9 6 5 5 3 5 6 6 7 7 7 8 9 9 8 8 9 9 9 10 10 11 10 10 11
5 4 4 4 4 4 4 3 3 3 3 3 4 5 7 7 8 9 7 4 5 6 6 6 7 7 7 7 8 8 9 9 10 9 9 9 9 10 11 11 11 13 12
4 6 5 4 4 4 4 4 4 4 4 4 4 4 5 5 5 6 6 5 5 6 7 7 8 8 8 8 8 8 9 10 10 10 10 10 10 10 11 13 12 12 11
4 5 7 5 4 4 4 4 4 4 4 4 4 5 7 4 5 6 6 6 6 6 7 8 8 8 8 8 8 10 11 10 10 10 10 10 11 11 12 12 12 12 12
3 3 3 4 3 3 3 3 3 3 4 4 4 5 8 5 4 5 5 6 6 7 7 7 8 8 8 9 9 10 11 11 11 11 11 12 12 12 12 12 12 12 11
4 4 4 3 3 4 4 3 3 3 4 4 4 4 5 5 5 6 6 7 7 7 7 7 8 9 8 10 10 9 10 11 11 12 13 13 12 12 12 13 14 14 12
5 5 4 3 3 4 3 3 3 4 4 4 5 5 5 5 6 7 7 7 7 7 8 9 8 11 14 13 12 13 12 14 15 12 15 14 14 13 13 13 13 14 13
5 5 4 4 4 3 3 3 4 4 4 4 5 5 5 6 6 7 7 7 9 9 10 11 10 12 15 17 16 16 19 20 18 16 13 12 14 14 14 14 12 13 12
5 5 4 4 4 3 3 3 4 4 4 4 5 5 5 6 6 7 8 8 9 10 10 11 14 17 18 17 19 22 21 20 20 19 14 11 12 12 13 11 14 12 13
Wind_Direction
184 188 188 187 189 189 192 201 200 197 192 190 191 191 193 196 192 190 200 199 204 216 216 211 224 221 222 223 204 190 184 171 214 264 261 267 253 255 253 239 242 242 246
186 186 189 190 191 198 207 210 203 199 198 196 193 194 200 202 199 200 209 209 208 217 222 219 227 226 226 226 220 224 220 203 206 250 268 265 254 250 248 248 249 248 246
182 183 188 191 194 203 211 212 206 202 202 198 196 201 206 205 204 209 212 215 214 218 219 220 226 222 229 228 225 229 232 231 214 233 261 255 259 258 262 266 259 255 256
177 180 189 198 202 207 207 208 209 204 203 203 204 207 208 207 208 211 213 218 222 224 223 223 224 220 225 226 229 228 229 234 232 240 258 261 259 256 245 259 273 261 259
168 177 193 201 205 209 211 215 216 214 215 211 210 216 213 212 218 215 216 220 223 231 233 231 231 228 226 225 229 225 224 232 235 241 254 263 262 257 250 244 258 267 265
157 171 177 175 178 182 182 180 179 209 222 213 215 216 216 228 233 221 216 223 222 227 237 243 246 244 242 238 238 233 223 229 237 240 247 249 257 249 249 247 251 259 270
111 110 119 127 123 123 114 95 104 207 190 210 221 207 215 236 236 225 220 222 228 234 240 248 260 263 255 253 254 253 247 242 238 240 247 251 254 248 241 247 244 243 252
95 93 97 107 110 96 84 75 44 39 79 91 62 87 123 3 181 198 191 185 225 261 266 266 266 287 313 303 286 281 274 267 259 253 252 257 257 254 243 248 253 256 255
83 80 78 88 89 80 74 60 43 45 35 34 37 52 60 27 35 60 124 91 35 351 357 9 13 3 356 1 340 312 302 295 291 284 274 269 267 264 259 260 257 256 263
79 75 70 71 78 77 73 66 49 52 44 47 51 53 63 54 49 60 80 71 47 18 5 5 22 17 359 357 336 308 297 294 300 304 295 288 277 270 262 248 249 255 262
85 79 71 70 76 76 66 61 61 62 58 58 62 54 54 55 54 62 70 68 57 18 349 329 320 331 328 322 310 277 273 281 287 283 284 283 279 272 264 253 244 245 253
77 71 65 60 65 72 69 60 55 59 61 59 64 55 47 46 54 56 58 56 48 30 317 306 307 317 317 312 305 289 288 290 280 276 277 277 277 275 272 264 256 252 251
71 66 59 52 52 59 68 65 56 57 66 61 72 73 50 23 21 33 33 25 17 357 299 304 309 311 313 307 300 301 303 295 285 280 279 277 273 273 276 277 274 267 264
68 58 52 51 46 47 56 68 75 71 73 67 67 74 54 6 353 352 353 350 347 339 326 317 316 314 311 302 304 307 301 290 287 283 284 282 282 281 280 277 278 278 278
63 54 49 49 52 48 44 53 77 85 127 123 118 120 92 6 315 326 345 338 331 321 325 326 329 329 327 322 317 311 308 309 305 297 297 300 297 293 289 284 276 277 275
60 46 42 41 40 43 47 42 43 62 66 82 100 103 70 334 337 350 349 345 340 339 351 327 318 315 313 313 314 313 310 307 305 305 303 299 298 297 295 291 283 278 277
66 52 42 40 42 39 45 61 45 28 42 53 55 50 28 357 356 349 342 339 337 345 346 312 307 306 306 306 307 307 307 303 300 298 298 298 298 297 293 291 288 283 279
55 45 46 45 46 50 54 58 64 58 28 10 15 17 10 2 356 350 348 357 348 346 325 312 311 309 306 306 307 306 305 305 303 299 297 297 296 294 293 290 287 283 283
49 39 45 49 52 58 59 53 46 45 39 14 0 357 357 355 355 355 1 5 336 328 324 318 313 311 310 309 308 307 306 304 303 301 297 296 297 294 290 288 287 285 282
34 41 56 58 54 51 44 42 35 32 27 19 8 350 346 1 357 349 352 347 339 332 329 325 320 316 314 313 313 311 309 308 308 306 303 300 299 297 293 291 287 285 283
36 39 52 61 60 55 49 45 41 40 27 9 353 351 5 0 347 342 342 339 335 331 327 323 320 318 317 316 315 313 310 308 307 305 303 301 300 298 296 293 289 284 282
57 60 59 69 70 59 49 44 42 29 11 1 344 347 359 2 347 340 335 333 329 323 321 320 318 316 314 313 313 312 309 308 309 308 306 303 300 298 298 297 295 290 284
68 70 66 63 62 56 52 39 27 12 360 353 350 352 354 350 342 337 334 331 329 325 322 320 319 319 318 316 313 308 307 308 309 306 304 300 297 295 295 295 294 295 290
70 73 71 60 49 45 39 26 15 9 3 357 355 352 346 343 339 336 333 329 328 324 324 323 318 319 320 322 319 316 314 314 313 306 299 294 293 291 291 292 293 293 292
72 70 63 54 47 39 31 21 11 4 2 359 354 348 344 344 340 336 332 330 329 329 328 329 327 326 325 323 322 322 320 317 312 309 302 293 288 287 288 290 292 294 293
75 70 60 51 44 33 26 16 7 3 359 356 355 352 351 348 343 339 336 336 336 333 331 332 329 329 327 328 327 326 322 318 315 312 305 295 291 290 293 292 293 293 294
Height
1517 1520 1524 1527 1530 1533 1535 1537 1539 1541 1542 1543 1544 1545 1546 1547 1547 1548 1549 1550 1550 1551 1551 1552 1553 1554 1554 1555 1555 1555 1555 1555 1554 1554 1554 1554 1553 1553 1553 1552 1552 1551 1550
1516 1519 1522 1525 1528 1531 1533 1535 1537 1539 1540 1541 1542 1543 1544 1544 1545 1545 1546 1547 1547 1548 1549 1549 1550 1551 1551 1551 1552 1552 1552 1552 1551 1550 1550 1550 1550 1549 1549 1548 1547 1547 1546
1514 1517 1521 1524 1526 1529 1531 1533 1535 1536 1537 1538 1539 1540 1540 1541 1541 1542 1543 1544 1544 1545 1545 1546 1546 1547 1547 1548 1548 1548 1548 1548 1547 1546 1545 1545 1545 1545 1544 1543 1542 1542 1541
1512 1515 1518 1521 1524 1526 1528 1530 1532 1533 1533 1534 1535 1536 1536 1537 1537 1538 1539 1539 1540 1541 1541 1542 1542 1543 1543 1543 1543 1543 1544 1543 1543 1541 1540 1539 1539 1539 1539 1537 1536 1536 1535
1510 1513 1516 1519 1521 1523 1525 1526 1528 1529 1529 1530 1531 1531 1531 1532 1533 1533 1534 1535 1535 1536 1536 1537 1537 1538 1538 1538 1538 1538 1538 1537 1537 1536 1534 1533 1532 1533 1532 1532 1530 1529 1528
1508 1511 1513 1516 1518 1520 1521 1523 1524 1524 1525 1525 1525 1526 1526 1527 1527 1528 1529 1529 1530 1531 1531 1532 1532 1532 1532 1532 1532 1532 1532 1531 1530 1529 1528 1527 1525 1526 1526 1525 1524 1522 1520
1506 1508 1511 1513 1515 1517 1518 1520 1520 1520 1520 1520 1520 1521 1522 1522 1523 1523 1524 1524 1524 1525 1525 1525 1526 1526 1525 1525 1525 1525 1524 1524 1524 1523 1520 1519 1519 1519 1519 1517 1516 1514 1512
1504 1507 1509 1511 1512 1514 1515 1516 1516 1516 1516 1515 1516 1517 1517 1518 1518 1519 1519 1519 1519 1519 1519 1519 1519 1518 1518 1517 1517 1516 1516 1515 1515 1514 1513 1511 1511 1510 1510 1509 1507 1505 1503
1504 1506 1508 1509 1510 1511 1511 1512 1513 1513 1512 1512 1513 1513 1513 1513 1514 1514 1514 1514 1513 1514 1513 1513 1513 1512 1511 1510 1509 1507 1506 1506 1506 1505 1503 1502 1501 1501 1501 1499 1497 1495 1491
1505 1507 1508 1508 1509 1509 1510 1510 1511 1510 1510 1510 1511 1510 1510 1510 1510 1511 1510 1510 1509 1508 1508 1508 1507 1506 1505 1504 1502 1500 1498 1497 1496 1494 1493 1492 1491 1491 1490 1489 1487 1485 1481
1506 1507 1508 1508 1509 1509 1509 1509 1509 1509 1509 1509 1509 1509 1508 1508 1508 1508 1507 1506 1505 1504 1503 1502 1501 1500 1499 1497 1495 1493 1491 1488 1486 1484 1482 1481 1480 1479 1479 1478 1477 1475 1472
1507 1508 1508 1509 1509 1509 1509 1509 1509 1509 1509 1509 1508 1508 1507 1507 1506 1505 1503 1502 1501 1499 1498 1497 1495 1493 1491 1490 1487 1485 1483 1480 1477 1475 1473 1471 1470 1468 1467 1466 1465 1464 1462
1509 1509 1510 1510 1510 1510 1509 1509 1509 1509 1508 1508 1507 1506 1505 1504 1503 1502 1500 1498 1497 1495 1493 1491 1489 1487 1484 1482 1480 1477 1475 1472 1469 1466 1464 1462 1461 1459 1457 1456 1454 1452 1450
1510 1511 1511 1511 1511 1510 1510 1509 1508 1508 1507 1506 1505 1504 1503 1502 1500 1498 1496 1494 1492 1490 1488 1486 1483 1481 1478 1476 1473 1471 1468 1466 1463 1460 1457 1454 1452 1450 1448 1446 1444 1442 1439
1512 1512 1512 1512 1511 1510 1509 1509 1507 1507 1506 1505 1503 1502 1500 1498 1496 1495 1492 1490 1487 1485 1482 1480 1478 1475 1472 1469 1467 1464 1462 1459 1457 1453 1450 1447 1444 1442 1439 1438 1435 1433 1430
1512 1512 1512 1511 1511 1510 1509 1508 1506 1505 1504 1502 1501 1499 1497 1496 1493 1491 1489 1486 1483 1481 1478 1475 1472 1470 1467 1464 1461 1458 1456 1453 1450 1447 1444 1441 1437 1434 1431 1429 1427 1424 1421
1512 1512 1511 1511 1509 1508 1507 1506 1505 1503 1502 1500 1498 1496 1495 1492 1490 1487 1485 1482 1480 1477 1474 1471 1468 1465 1462 1459 1456 1453 1450 1447 1444 1441 1437 1434 1430 1427 1423 1420 1418 1416 1413
1512 1511 1510 1509 1508 1507 1505 1504 1503 1501 1499 1497 1495 1494 1491 1489 1487 1484 1481 1478 1475 1472 1469 1466 1463 1460 1457 1453 1450 1447 1443 1440 1437 1433 1430 1426 1423 1420 1416 1413 1410 1407 1404
1511 1510 1509 1508 1506 1505 1503 1502 1500 1498 1496 1494 1492 1490 1488 1486 1483 1480 1477 1474 1470 1467 1465 1461 1458 1455 1451 1448 1444 1440 1437 1433 1430 1426 1423 1419 1416 1412 1408 1405 1401 1398 1396
1509 1508 1507 1506 1504 1503 1501 1499 1497 1495 1494 1492 1489 1487 1484 1482 1479 1476 1473 1470 1467 1464 1460 1457 1453 1449 1446 1442 1438 1434 1431 1427 1423 1419 1416 1412 1408 1405 1401 1397 1393 1390 1387
1508 1507 1505 1504 1502 1501 1499 1497 1495 1493 1492 1490 1488 1485 1482 1479 1476 1473 1470 1467 1464 1460 1456 1452 1448 1444 1440 1436 1432 1428 1424 1420 1416 1413 1409 1405 1401 1397 1393 1389 1385 1382 1379
1506 1505 1504 1502 1501 1499 1497 1496 1494 1492 1490 1488 1485 1483 1480 1477 1474 1471 1468 1464 1461 1457 1453 1448 1444 1440 1436 1431 1427 1423 1418 1414 1410 1406 1402 1398 1394 1390 1386 1382 1378 1374 1371
1505 1503 1502 1501 1499 1497 1496 1494 1492 1490 1488 1486 1484 1481 1478 1475 1472 1469 1465 1461 1457 1453 1449 1444 1440 1435 1431 1427 1423 1418 1413 1409 1404 1400 1395 1391 1386 1383 1379 1375 1371 1367 1364
1503 1502 1501 1499 1498 1496 1494 1493 1491 1489 1487 1485 1482 1479 1476 1473 1470 1467 1463 1459 1454 1450 1445 1441 1436 1431 1426 1422 1417 1413 1408 1403 1399 1394 1389 1384 1380 1376 1372 1369 1365 1362 1359
1502 1501 1499 1498 1496 1495 1493 1492 1490 1488 1486 1484 1481 1478 1475 1472 1468 1464 1460 1456 1451 1447 1442 1437 1432 1427 1422 1418 1413 1408 1403 1398 1393 1388 1383 1379 1374 1370 1367 1363 1360 1357 1354
1501 1500 1499 1497 1496 1494 1493 1491 1489 1487 1485 1482 1480 1477 1473 1470 1466 1462 1458 1453 1449 1444 1439 1434 1429 1424 1419 1413 1408 1403 1398 1393 1388 1383 1378 1373 1369 1365 1362 1358 1355 1352 1350